Flag for Germany Weather past 2 weeks in Warendorf, North Rhine-Westphalia, Germany

Now
57 °F

Light rain. Mostly cloudy.


Feels Like: 56 °F
Forecast: 54 / 68 °F
Wind: 6 mph from Southwest

Location: Muenster / Osnabrueck

Current Time: Aug 27, 2015 at 11:54:06 PM

Latest Report: Aug 27, 2015 at 10:50 PM


Visibility: 4 mi

Pressure: 29.89 "Hg

Humidity: 94%

Dew point: 55 °F

Location of WarendorfLocation

Historic Weather in Warendorf — Graph

°F

Warendorf temperature yesterday

Maximum temperature yesterday: 79 °F (at 3:20 PM)
Minimum temperature yesterday: 59 °F (at 12:50 AM)
Average temperature yesterday: 70 °F

Past Weeks' High & Low Weather Summary

 TemperatureHumidityPressure
High82 °F (Aug 13, 4:20 PM)100% (Aug 13, 3:50 AM)30.27 "Hg (Aug 13, 3:50 AM)
Low50 °F (Aug 19, 6:20 AM)34% (Aug 23, 2:20 PM)29.53 "Hg (Aug 24, 5:20 PM)
Average66 °F78%29.92 "Hg
* Reported Aug 12 10:20 PM — Aug 27 10:20 PM, Warendorf, Weather by CustomWeather, © 2015

Note: Actual official high and low records may vary slightly from our data, if they occured in-between our weather recording intervals... More about our weather records

Advertising

Warendorf weather history for previous 24 hours

 ConditionsComfort  
Time TempWeatherWind HumidityBarometerVisibility
10:20 PM
Thu, Aug 27
57 °FLight rain. Mostly cloudy.6 mph94%29.86 "Hg4 mi
9:50 PM57 °FLight rain. Low clouds.6 mph100%29.86 "Hg4 mi
9:20 PM57 °FLight rain. Low clouds.3 mph100%29.86 "HgN/A
8:50 PM57 °FLight rain. Low clouds.6 mph94%29.86 "Hg6 mi
8:20 PM57 °FLight rain. Low clouds.5 mph94%29.86 "Hg6 mi
7:50 PM57 °FLight rain. Mostly cloudy.6 mph100%29.86 "Hg6 mi
7:20 PM57 °FLight rain. Partly sunny.7 mph100%29.86 "Hg5 mi
6:50 PM59 °FLight rain. Broken clouds.7 mph94%29.83 "Hg5 mi
6:20 PM59 °FLight rain. Partly sunny.7 mph94%29.86 "Hg5 mi
5:50 PM59 °FLight rain. Partly sunny.8 mph94%29.86 "HgN/A
5:20 PM59 °FLight rain. Partly sunny.8 mph88%29.86 "HgN/A
4:50 PM59 °FLight rain. Partly sunny.10 mph88%29.86 "Hg5 mi
4:20 PM61 °FLight rain. Partly sunny.9 mph94%29.86 "Hg5 mi
3:50 PM61 °FLight rain. Broken clouds.10 mph94%29.86 "Hg6 mi
3:20 PM61 °FLight rain. Broken clouds.10 mph88%29.86 "Hg5 mi
2:50 PM63 °FLight rain. Broken clouds.10 mph88%29.83 "Hg6 mi
2:20 PM63 °FLight rain. Broken clouds.13 mph83%29.83 "HgN/A
1:50 PM64 °FLight rain. Broken clouds.10 mph88%29.83 "Hg5 mi
1:20 PM66 °FLight rain. Broken clouds.10 mph78%29.83 "HgN/A
12:50 PM66 °FBroken clouds.12 mph73%29.83 "HgN/A
12:20 PM68 °FLight rain. Broken clouds.12 mph69%29.83 "HgN/A
10:50 AM66 °FBroken clouds.10 mph73%29.83 "HgN/A
10:20 AM66 °FBroken clouds.8 mph73%29.83 "HgN/A
9:50 AM66 °FBroken clouds.10 mph78%29.83 "HgN/A
9:20 AM66 °FLight rain. Broken clouds.9 mph83%29.80 "HgN/A
8:50 AM66 °FLight rain. Broken clouds.10 mph83%29.80 "HgN/A
8:20 AM66 °FBroken clouds.8 mph88%29.80 "HgN/A
7:50 AM66 °FBroken clouds.9 mph94%29.77 "HgN/A
7:20 AM66 °FPartly cloudy.9 mph88%29.74 "HgN/A
6:50 AM66 °FPartly cloudy.9 mph88%29.77 "HgN/A
6:20 AM66 °FLight rain. Partly cloudy.8 mph88%29.77 "HgN/A
5:50 AM66 °FLight rain. Passing clouds.8 mph88%29.74 "HgN/A
5:20 AM68 °FLight rain. Passing clouds.12 mph83%29.74 "HgN/A
4:50 AM70 °FPassing clouds.7 mph73%29.74 "HgN/A
4:20 AM70 °FClear.7 mph73%29.74 "Hg10 mi
3:50 AM68 °FPassing clouds.5 mph78%29.74 "HgN/A
3:20 AM68 °FClear.3 mph78%29.74 "Hg10 mi
2:50 AM68 °FLight rain. Clear.5 mph78%29.74 "HgN/A
2:20 AM66 °FClear.3 mph83%29.74 "Hg10 mi
1:50 AM66 °FClear.1 mph78%29.74 "Hg10 mi
1:20 AM70 °FPassing clouds.3 mph64%29.77 "HgN/A
12:50 AM70 °FClear.5 mph69%29.74 "Hg10 mi
12:20 AM72 °FLight rain. Clear.3 mph61%29.74 "HgN/A
11:50 PM
Wed, Aug 26
72 °FPassing clouds.8 mph61%29.77 "HgN/A
11:20 PM73 °FPassing clouds.10 mph57%29.77 "HgN/A
Weather by CustomWeather, © 2015

See weather overviewHow to use our weather pages